Regional Weather Roundup
Issued by NWS Jackson, KY

Home | Current Version | Previous Version | Text Only | Print | Product List | Glossary Off
Versions: 1 2 3 4 5 6 7 8 9 10 11 12 13 14 15 16 17 18 19 20 21 22 23 24 25 26 27

000
ASUS43 KJKL 310310
RWRJKL

EAST KENTUCKY HOURLY WEATHER ROUNDUP
NATIONAL WEATHER SERVICE JACKSON KY
1100 PM EDT TUE AUG 30 2016

NOTE: "FAIR" INDICATES FEW OR NO CLOUDS BELOW 12,000 FEET WITH
NO SIGNIFICANT WEATHER AND/OR OBSTRUCTIONS TO VISIBILITY.

* THESE REPORTS ARE NOT UNDER NWS QUALITY CONTROL AND MAY NOT
  REPORT WEATHER SUCH AS PRECIPITATION AND FOG.

KYZ079-080-083-085-087-088-110-112-115-119-120-310400
...EASTERN KENTUCKY...

CITY           SKY/WX    TMP DP  RH WIND       PRES   REMARKS
JACKSON        CLEAR     74  71  91 CALM      30.09R
LONDON         CLEAR     73  68  84 CALM      30.07S
SOMERSET*      CLEAR     72  72 100 CALM      30.07S
MONTICELLO*    CLEAR    N/A N/A N/A W8        30.07S
WILLIAMSBURG*  CLEAR     72  72 100 CALM      30.07S
MIDDLESBORO*   CLEAR     72  70  95 CALM      30.09R
HARLAN APT*    CLOUDY    70  66  88 CALM      30.11R
PIKE CO APT*     N/A     72  71  96 CALM      30.10R
BIG SANDY APT* CLEAR     73  70  90 CALM      30.08F
MOREHEAD APT*  CLEAR     73  61  64 CALM      30.09R
ASHLAND*       CLEAR     70  66  88 CALM      30.04S
$$

KYZ035-036-041-042-044-050-067-078-099-310400
...CENTRAL KENTUCKY...

CITY           SKY/WX    TMP DP  RH WIND       PRES   REMARKS
MT STERLING*   CLEAR     70  68  94 CALM      30.09R
FLEMING/MASON* CLEAR     75  65  71 CALM      30.08F
DANVILLE*      CLEAR     73  70  88 CALM      30.08R
LEXINGTON      PTCLDY    77  68  73 CALM      30.08R
FRANKFORT      CLEAR     76  70  82 N3        30.06R
LOUISVILLE     PTCLDY    83  68  60 NE5       30.04R
LEBANON*         N/A     77  70  78 N3        30.06S
GLASGOW*       CLEAR     75  75 100 CALM      30.04S
BOWLING GREEN  CLEAR     78  73  84 CALM      30.03R
$$

KYZ091>093-OHZ055-061-077-WVZ005-015-034-035-042-310400
...SOUTHERN OHIO/WEST VIRGINIA...

CITY           SKY/WX    TMP DP  RH WIND       PRES   REMARKS
COVINGTON      PTCLDY    76  67  73 N3        30.08R
COLUMBUS       CLOUDY    72  64  76 CALM      30.06S
DAYTON         CLOUDY    73  70  90 N12       30.11R
WILMINGTON     CLOUDY    70  66  87 CALM      30.08S
HUNTINGTON     CLEAR     72  66  81 CALM      30.06R
CHARLESTON     PTCLDY    70  66  87 CALM      30.07R
PINEVILLE*     PTCLDY    69  66  89 MISG      30.16S FOG
BECKLEY        CLEAR     69  65  86 CALM      30.15S
BLUEFIELD      PTCLDY    68  65  90 CALM      30.18R
LOGAN CO APT*    N/A     72  70  94 CALM      30.09S
$$

VAZ002-007-008-TNZ017-027-036-066-071-310400
...SOUTHWEST VIRGINIA/EAST TENNESSEE...

CITY           SKY/WX    TMP DP  RH WIND       PRES   REMARKS
WISE*          CLEAR     70  68  94 CALM      30.18R
JONESVILLE*      N/A     70  68  94 CALM      30.11R
ABINGDON*      CLEAR     73  68  84 E3        30.13R
BRISTOL        PTCLDY    73  69  87 CALM      30.09R
MORRISTOWN*    CLEAR     77  70  78 CALM      30.06R
SEVIERVILLE*   CLEAR     73  66  78 CALM      30.04R
KNOXVILLE      PTCLDY    80  68  66 CALM      30.03R
OAK RIDGE      CLEAR     77  69  76 CALM      30.05R
CROSSVILLE     CLEAR     70  68  93 CALM      30.11R
NASHVILLE      CLEAR     83  72  69 N3        30.03R
$$

...KEY TO REMARKS...
VSB - VISIBILITY IN MILES
WCI - WIND CHILL INDEX
HX  - HEAT INDEX

$$




USA.gov is the U.S. government's official web portal to all federal, state and local government web resources and services.